Time,TemperatureF,DewpointF,PressureIn,WindDirection,WindDirectionDegrees,WindSpeedMPH,WindSpeedGustMPH,Humidity,HourlyPrecipIn,Conditions,Clouds,dailyrainin,SolarRadiationWatts/m^2,SoftwareType,DateUTC
2013-03-04 00:01:00,40.0,28.0,-100.00,SSW,198,3.0,3.0,61,0.00,,,0.00,0.000000,,2013-03-04 06:01:00,
2013-03-04 00:32:00,40.0,30.0,-100.00,SSW,202,3.0,4.0,66,0.00,,,0.00,0.000000,,2013-03-04 06:32:00,
2013-03-04 00:42:00,40.0,30.0,-100.00,SSW,202,3.0,4.0,66,0.00,,,0.00,0.000000,,2013-03-04 06:42:00,
2013-03-04 00:52:00,40.0,30.0,-100.00,SSW,202,3.0,4.0,66,0.00,,,0.00,0.000000,,2013-03-04 06:52:00,
2013-03-04 01:01:00,40.0,30.0,-100.00,SSW,202,3.0,4.0,66,0.00,,,0.00,0.000000,,2013-03-04 07:01:00,
2013-03-04 01:32:00,39.0,31.0,-100.00,SSW,199,2.0,5.0,72,0.00,,,0.00,0.000000,,2013-03-04 07:32:00,
2013-03-04 01:42:00,39.0,31.0,-100.00,SSW,199,2.0,5.0,72,0.00,,,0.00,0.000000,,2013-03-04 07:42:00,
2013-03-04 01:52:00,39.0,31.0,-100.00,SSW,199,2.0,5.0,72,0.00,,,0.00,0.000000,,2013-03-04 07:52:00,
2013-03-04 02:02:00,39.0,31.0,-100.00,SSW,199,2.0,5.0,72,0.00,,,0.00,0.000000,,2013-03-04 08:02:00,
2013-03-04 02:32:00,37.0,32.0,-100.00,SSW,198,2.0,3.0,81,0.00,,,0.00,0.000000,,2013-03-04 08:32:00,
2013-03-04 02:42:00,37.0,32.0,-100.00,SSW,198,2.0,3.0,81,0.00,,,0.00,0.000000,,2013-03-04 08:42:00,
2013-03-04 02:52:00,37.0,32.0,-100.00,SSW,198,2.0,3.0,81,0.00,,,0.00,0.000000,,2013-03-04 08:52:00,
2013-03-04 03:01:00,37.0,32.0,-100.00,SSW,198,2.0,3.0,81,0.00,,,0.00,0.000000,,2013-03-04 09:01:00,
2013-03-04 03:32:00,37.0,33.0,-100.00,SSW,203,3.0,5.0,86,0.00,,,0.00,0.000000,,2013-03-04 09:32:00,
2013-03-04 03:42:00,37.0,33.0,-100.00,SSW,203,3.0,5.0,86,0.00,,,0.00,0.000000,,2013-03-04 09:42:00,
2013-03-04 03:52:00,37.0,33.0,-100.00,SSW,203,3.0,5.0,86,0.00,,,0.00,0.000000,,2013-03-04 09:52:00,
2013-03-04 04:01:00,37.0,33.0,-100.00,SSW,203,3.0,5.0,86,0.00,,,0.00,0.000000,,2013-03-04 10:01:00,
2013-03-04 04:32:00,37.0,34.0,-100.00,South,172,1.0,4.0,87,0.00,,,0.00,0.000000,,2013-03-04 10:32:00,
2013-03-04 04:42:00,37.0,34.0,-100.00,South,172,1.0,4.0,87,0.00,,,0.00,0.000000,,2013-03-04 10:42:00,
2013-03-04 04:52:00,37.0,34.0,-100.00,South,172,1.0,4.0,87,0.00,,,0.00,0.000000,,2013-03-04 10:52:00,
2013-03-04 05:02:00,37.0,34.0,-100.00,South,172,1.0,4.0,87,0.00,,,0.00,0.000000,,2013-03-04 11:02:00,
2013-03-04 05:32:00,35.0,33.0,-100.00,South,175,0.0,3.0,94,0.00,,,0.00,0.000000,,2013-03-04 11:32:00,
2013-03-04 05:42:00,35.0,33.0,-100.00,South,175,0.0,3.0,94,0.00,,,0.00,0.000000,,2013-03-04 11:42:00,
2013-03-04 05:52:00,35.0,33.0,-100.00,South,175,0.0,3.0,94,0.00,,,0.00,0.000000,,2013-03-04 11:52:00,
2013-03-04 06:01:00,35.0,33.0,-100.00,South,175,0.0,3.0,94,0.00,,,0.00,0.000000,,2013-03-04 12:01:00,
2013-03-04 06:32:00,36.0,34.0,-100.00,SW,214,2.0,3.0,94,0.00,,,0.00,0.000000,,2013-03-04 12:32:00,
2013-03-04 06:42:00,36.0,34.0,-100.00,SW,214,2.0,3.0,94,0.00,,,0.00,0.000000,,2013-03-04 12:42:00,
2013-03-04 06:53:00,36.0,34.0,-100.00,SW,214,2.0,3.0,94,0.00,,,0.00,0.000000,,2013-03-04 12:53:00,
2013-03-04 07:02:00,36.0,34.0,-100.00,SW,214,2.0,3.0,94,0.00,,,0.00,0.000000,,2013-03-04 13:02:00,
2013-03-04 07:32:00,38.0,37.0,-100.00,SSW,213,2.0,4.0,95,0.00,,,0.00,11.000000,,2013-03-04 13:32:00,
2013-03-04 07:42:00,38.0,37.0,-100.00,SSW,213,2.0,4.0,95,0.00,,,0.00,11.000000,,2013-03-04 13:42:00,
2013-03-04 07:52:00,38.0,37.0,-100.00,SSW,213,2.0,4.0,95,0.00,,,0.00,11.000000,,2013-03-04 13:52:00,
2013-03-04 08:01:00,38.0,37.0,-100.00,SSW,213,2.0,4.0,95,0.00,,,0.00,11.000000,,2013-03-04 14:01:00,
2013-03-04 08:32:00,48.0,40.0,-100.00,SSW,207,3.0,7.0,75,0.00,,,0.00,161.000000,,2013-03-04 14:32:00,
2013-03-04 08:42:00,48.0,40.0,-100.00,SSW,207,3.0,7.0,75,0.00,,,0.00,161.000000,,2013-03-04 14:42:00,
2013-03-04 08:52:00,48.0,40.0,-100.00,SSW,207,3.0,7.0,75,0.00,,,0.00,161.000000,,2013-03-04 14:52:00,
2013-03-04 09:01:00,48.0,40.0,-100.00,SSW,207,3.0,7.0,75,0.00,,,0.00,161.000000,,2013-03-04 15:01:00,
2013-03-04 09:32:00,56.0,42.0,-100.00,SSW,206,6.0,14.0,59,0.00,,,0.00,363.000000,,2013-03-04 15:32:00,
2013-03-04 09:42:00,56.0,42.0,-100.00,SSW,206,6.0,14.0,59,0.00,,,0.00,363.000000,,2013-03-04 15:42:00,
2013-03-04 09:52:00,56.0,42.0,-100.00,SSW,206,6.0,14.0,59,0.00,,,0.00,363.000000,,2013-03-04 15:52:00,
2013-03-04 10:02:00,56.0,42.0,-100.00,SSW,206,6.0,14.0,59,0.00,,,0.00,363.000000,,2013-03-04 16:02:00,
2013-03-04 10:32:00,62.0,44.0,-100.00,SSW,199,5.0,16.0,51,0.00,,,0.00,521.000000,,2013-03-04 16:32:00,
2013-03-04 10:42:00,62.0,44.0,-100.00,SSW,199,5.0,16.0,51,0.00,,,0.00,521.000000,,2013-03-04 16:42:00,
2013-03-04 10:52:00,62.0,44.0,-100.00,SSW,199,5.0,16.0,51,0.00,,,0.00,521.000000,,2013-03-04 16:52:00,
2013-03-04 11:02:00,62.0,44.0,-100.00,SSW,199,5.0,16.0,51,0.00,,,0.00,521.000000,,2013-03-04 17:02:00,
2013-03-04 11:32:00,66.0,42.0,-100.00,SSW,205,7.0,15.0,42,0.00,,,0.00,641.000000,,2013-03-04 17:32:00,
2013-03-04 11:42:00,66.0,42.0,-100.00,SSW,205,7.0,15.0,42,0.00,,,0.00,641.000000,,2013-03-04 17:42:00,
2013-03-04 11:52:00,66.0,42.0,-100.00,SSW,205,7.0,15.0,42,0.00,,,0.00,641.000000,,2013-03-04 17:52:00,
2013-03-04 12:01:00,66.0,42.0,-100.00,SSW,205,7.0,15.0,42,0.00,,,0.00,641.000000,,2013-03-04 18:01:00,
2013-03-04 12:32:00,67.0,41.0,-100.00,SSW,200,7.0,16.0,39,0.00,,,0.00,564.000000,,2013-03-04 18:32:00,
2013-03-04 12:42:00,67.0,41.0,-100.00,SSW,200,7.0,16.0,39,0.00,,,0.00,564.000000,,2013-03-04 18:42:00,
2013-03-04 12:52:00,67.0,41.0,-100.00,SSW,200,7.0,16.0,39,0.00,,,0.00,564.000000,,2013-03-04 18:52:00,
2013-03-04 13:02:00,67.0,41.0,-100.00,SSW,200,7.0,16.0,39,0.00,,,0.00,564.000000,,2013-03-04 19:02:00,
2013-03-04 13:32:00,70.0,45.0,-100.00,SSW,198,7.0,20.0,40,0.00,,,0.00,625.000000,,2013-03-04 19:32:00,
2013-03-04 13:42:00,70.0,45.0,-100.00,SSW,198,7.0,20.0,40,0.00,,,0.00,625.000000,,2013-03-04 19:42:00,
2013-03-04 13:52:00,70.0,45.0,-100.00,SSW,198,7.0,20.0,40,0.00,,,0.00,625.000000,,2013-03-04 19:52:00,
2013-03-04 14:02:00,70.0,45.0,-100.00,SSW,198,7.0,20.0,40,0.00,,,0.00,625.000000,,2013-03-04 20:02:00,
2013-03-04 14:32:00,70.0,46.0,-100.00,SSW,206,6.0,23.0,43,0.00,,,0.00,684.000000,,2013-03-04 20:32:00,
2013-03-04 14:42:00,70.0,46.0,-100.00,SSW,206,6.0,23.0,43,0.00,,,0.00,684.000000,,2013-03-04 20:42:00,
2013-03-04 14:52:00,70.0,46.0,-100.00,SSW,206,6.0,23.0,43,0.00,,,0.00,684.000000,,2013-03-04 20:52:00,
2013-03-04 15:02:00,70.0,46.0,-100.00,SSW,206,6.0,23.0,43,0.00,,,0.00,684.000000,,2013-03-04 21:02:00,
2013-03-04 15:32:00,70.0,48.0,-100.00,SSW,203,6.0,23.0,46,0.00,,,0.00,459.000000,,2013-03-04 21:32:00,
2013-03-04 15:43:00,70.0,48.0,-100.00,SSW,203,6.0,23.0,46,0.00,,,0.00,459.000000,,2013-03-04 21:43:00,
2013-03-04 15:53:00,70.0,48.0,-100.00,SSW,203,6.0,23.0,46,0.00,,,0.00,459.000000,,2013-03-04 21:53:00,
2013-03-04 16:02:00,70.0,48.0,-100.00,SSW,203,6.0,23.0,46,0.00,,,0.00,459.000000,,2013-03-04 22:02:00,
2013-03-04 16:32:00,65.0,47.0,-100.00,SSW,203,6.0,16.0,53,0.00,,,0.00,187.000000,,2013-03-04 22:32:00,
2013-03-04 16:43:00,65.0,47.0,-100.00,SSW,203,6.0,16.0,53,0.00,,,0.00,187.000000,,2013-03-04 22:43:00,
2013-03-04 16:52:00,65.0,47.0,-100.00,SSW,203,6.0,16.0,53,0.00,,,0.00,187.000000,,2013-03-04 22:52:00,
2013-03-04 17:02:00,65.0,47.0,-100.00,SSW,203,6.0,16.0,53,0.00,,,0.00,187.000000,,2013-03-04 23:02:00,
2013-03-04 17:32:00,64.0,48.0,-100.00,SSW,202,5.0,16.0,57,0.00,,,0.00,116.000000,,2013-03-04 23:32:00,
2013-03-04 17:42:00,64.0,48.0,-100.00,SSW,202,5.0,16.0,57,0.00,,,0.00,116.000000,,2013-03-04 23:42:00,
2013-03-04 17:52:00,64.0,48.0,-100.00,SSW,202,5.0,16.0,57,0.00,,,0.00,116.000000,,2013-03-04 23:52:00,
2013-03-04 18:02:00,64.0,48.0,-100.00,SSW,202,5.0,16.0,57,0.00,,,0.00,116.000000,,2013-03-05 00:02:00,
2013-03-04 18:32:00,61.0,49.0,-100.00,SSW,198,5.0,12.0,65,0.00,,,0.00,17.000000,,2013-03-05 00:32:00,
2013-03-04 18:42:00,61.0,49.0,-100.00,SSW,198,5.0,12.0,65,0.00,,,0.00,17.000000,,2013-03-05 00:42:00,
2013-03-04 18:52:00,61.0,49.0,-100.00,SSW,198,5.0,12.0,65,0.00,,,0.00,17.000000,,2013-03-05 00:52:00,
2013-03-04 19:01:00,61.0,49.0,-100.00,SSW,198,5.0,12.0,65,0.00,,,0.00,17.000000,,2013-03-05 01:01:00,
2013-03-04 20:33:00,59.0,51.0,-100.00,SSW,196,5.0,11.0,75,-99.99,,,0.00,0.000000,,2013-03-05 02:33:00,
2013-03-04 20:42:00,59.0,51.0,-100.00,SSW,196,5.0,11.0,75,-99.99,,,0.00,0.000000,,2013-03-05 02:42:00,
2013-03-04 20:52:00,59.0,51.0,-100.00,SSW,196,5.0,11.0,75,-99.99,,,0.00,0.000000,,2013-03-05 02:52:00,
2013-03-04 21:02:00,59.0,51.0,-100.00,SSW,196,5.0,11.0,75,-99.99,,,0.00,0.000000,,2013-03-05 03:02:00,
2013-03-04 21:32:00,59.0,52.0,-100.00,SSW,198,5.0,10.0,79,0.00,,,0.00,0.000000,,2013-03-05 03:32:00,
2013-03-04 21:42:00,59.0,52.0,-100.00,SSW,198,5.0,10.0,79,0.00,,,0.00,0.000000,,2013-03-05 03:42:00,
2013-03-04 21:52:00,59.0,52.0,-100.00,SSW,198,5.0,10.0,79,0.00,,,0.00,0.000000,,2013-03-05 03:52:00,
2013-03-04 22:01:00,59.0,52.0,-100.00,SSW,198,5.0,10.0,79,0.00,,,0.00,0.000000,,2013-03-05 04:01:00,
2013-03-04 22:32:00,58.0,53.0,-100.00,SSW,199,5.0,10.0,83,0.00,,,0.00,0.000000,,2013-03-05 04:32:00,
2013-03-04 22:42:00,58.0,53.0,-100.00,SSW,199,5.0,10.0,83,0.00,,,0.00,0.000000,,2013-03-05 04:42:00,
2013-03-04 22:52:00,58.0,53.0,-100.00,SSW,199,5.0,10.0,83,0.00,,,0.00,0.000000,,2013-03-05 04:52:00,
2013-03-04 23:02:00,58.0,53.0,-100.00,SSW,199,5.0,10.0,83,0.00,,,0.00,0.000000,,2013-03-05 05:02:00,
2013-03-04 23:32:00,59.0,54.0,-100.00,SSW,208,5.0,10.0,84,0.00,,,0.00,0.000000,,2013-03-05 05:32:00,
2013-03-04 23:42:00,59.0,54.0,-100.00,SSW,208,5.0,10.0,84,0.00,,,0.00,0.000000,,2013-03-05 05:42:00,
2013-03-04 23:52:00,59.0,54.0,-100.00,SSW,208,5.0,10.0,84,0.00,,,0.00,0.000000,,2013-03-05 05:52:00,